Tracking 19489 objects as of 22-Jan-2019
HD Live streaming from Space Station
objects crossing your sky now

COSMOS 1413 (GLONASS)

Track COSMOS 1413 (GLONASS) now!
COSMOS 1413 (GLONASS) is classified as:


NORAD ID: 13603
Int'l Code: 1982-100A
Perigee: 19,058.3 km
Apogee: 19,094.0 km
Inclination: 64.0 °
Period: 673.3 minutes
Semi major axis: 25447 km
RCS: 0.4302 m2 (medium)
Launch date: October 12, 1982
Source: Commonwealth of Independent States (former USSR) (CIS)
Launch site: TYURATAM MISSILE AND SPACE COMPLEX (TTMTR)
SV:
aabbcc
Your satellite tracking list
Your tracking list is empty




NASA's NSSDC Master Catalog

Two Line Element Set (TLE):
1 13603U 82100A   19021.52865715 +.00000033 +00000-0 +00000-0 0  9992
2 13603 063.9842 161.0230 0007018 013.8368 037.3064 02.13866823283370
Source of the keplerian elements: AFSPC